Date String (YYYY-MM-DD hh:mm:ss) UTC,Instrument flags,Ambient pressure (hPa),Sample flow (lpm),Bypass flow (lpm),Sample temperature (°C),Ambient temperature (°C),ASC tube jacket temperature (°C),LED temperature (°C),Box temperature (°C),Sample RH (%),Span deviation,Mass concentration (μg/m³),Mass concentration (μg/m³),Mass concentration (μg/m³)
DateTimeUTC,F1_M11,P_M11,Q1_M11,Q2_M11,T1_M11,T2_M11,T3_M11,T4_M11,T5_M11,U1_M11,ZSPAN_M11,X0_M11,X2_M11,X1_M11
2022-11-08 17:00:00,,0822.6,4.99,0.00,23.6,22.4,00.0,32.4,25.5,19.5,0000.8,0012.96,0004.48,0003.49
2022-11-08 17:01:00,,0822.6,5.01,0.00,23.6,22.4,00.0,32.4,25.5,18.1,0001.1,0012.17,0004.42,0003.46
2022-11-08 17:02:00,,0822.8,5.00,0.00,23.6,22.4,00.0,32.4,25.5,18.3,0001.1,0012.09,0004.38,0003.42
2022-11-08 17:03:00,,0822.8,4.99,0.00,23.6,22.4,00.0,32.4,25.5,19.3,0000.8,0011.70,0004.36,0003.40
2022-11-08 17:04:00,,0822.9,5.02,0.00,23.7,22.5,00.0,32.4,25.6,19.8,0001.0,0011.50,0004.36,0003.44
2022-11-08 17:05:00,,0822.8,4.99,0.00,23.7,22.5,00.0,32.5,25.6,19.5,0000.9,0011.32,0004.50,0003.52
2022-11-08 17:06:00,,0822.6,4.99,0.00,23.7,22.5,00.0,32.5,25.6,19.1,0000.5,0011.88,0004.58,0003.59
2022-11-08 17:07:00,,0822.6,5.02,0.00,23.7,22.5,00.0,32.5,25.6,18.9,-000.4,0013.06,0004.60,0003.59
2022-11-08 17:08:00,,0822.6,4.98,0.00,23.7,22.4,00.0,32.5,25.6,19.3,-000.5,0013.12,0004.58,0003.60
2022-11-08 17:09:00,,0822.7,5.01,0.00,23.7,22.4,00.0,32.5,25.5,19.6,-000.3,0012.94,0004.60,0003.65
2022-11-08 17:10:00,,0822.7,4.99,0.00,23.7,22.3,00.0,32.5,25.5,19.7,-000.8,0012.61,0004.69,0003.73
2022-11-08 17:11:00,,0822.7,5.01,0.00,23.7,22.3,00.0,32.5,25.5,19.5,-000.5,0013.13,0004.79,0003.84
2022-11-08 17:12:00,,0822.7,5.00,0.00,23.7,22.3,00.0,32.5,25.5,19.5,-000.7,0013.74,0004.94,0003.96
2022-11-08 17:13:00,,0822.8,4.99,0.00,23.6,22.3,00.0,32.5,25.5,19.6,-000.5,0014.00,0005.10,0004.09
2022-11-08 17:14:00,,0822.8,4.99,0.00,23.7,22.4,00.0,32.5,25.5,19.6,-000.6,0014.21,0005.23,0004.22
2022-11-08 17:15:00,,0822.6,5.01,0.00,23.7,22.4,00.0,32.5,25.5,19.7,-001.0,0014.33,0005.38,0004.32
2022-11-08 17:16:00,,0822.6,5.00,0.00,23.7,22.5,00.0,32.5,25.5,19.6,-001.3,0014.53,0005.41,0004.40
2022-11-08 17:17:00,,0822.6,5.00,0.00,23.7,22.5,00.0,32.5,25.6,19.4,-001.1,0014.97,0005.49,0004.48
2022-11-08 17:18:00,,0822.6,5.00,0.00,23.7,22.5,00.0,32.5,25.6,19.3,-000.9,0013.63,0005.53,0004.54
2022-11-08 17:19:00,,0822.6,5.02,0.00,23.7,22.5,00.0,32.5,25.6,18.9,-001.1,0013.27,0005.60,0004.60
2022-11-08 17:20:00,,0822.7,4.98,0.00,23.7,22.4,00.0,32.5,25.6,18.6,-001.4,0013.50,0005.70,0004.65
2022-11-08 17:21:00,,0822.7,5.00,0.00,23.7,22.5,00.0,32.5,25.5,18.5,-001.3,0013.59,0005.72,0004.66
2022-11-08 17:22:00,,0822.7,5.01,0.00,23.7,22.5,00.0,32.5,25.5,17.9,-001.5,0013.40,0005.70,0004.65
2022-11-08 17:23:00,,0822.6,4.98,0.00,23.7,22.5,00.0,32.5,25.6,17.5,-001.5,0012.95,0005.66,0004.62
2022-11-08 17:24:00,,0822.5,5.02,0.00,23.7,22.5,00.0,32.5,25.6,17.1,-001.7,0012.68,0005.60,0004.58
2022-11-08 17:25:00,,0822.6,4.99,0.00,23.7,22.6,00.0,32.5,25.6,17.3,-001.2,0012.61,0005.55,0004.53
2022-11-08 17:26:00,,0822.6,5.00,0.00,23.7,22.6,00.0,32.5,25.6,17.3,-000.4,0012.46,0005.50,0004.49
2022-11-08 17:27:00,,0822.6,5.01,0.00,23.7,22.6,00.0,32.5,25.6,17.4,-000.3,0012.20,0005.43,0004.44
2022-11-08 17:28:00,,0822.6,4.99,0.00,23.8,22.7,00.0,32.5,25.7,16.9,-000.0,0011.36,0005.37,0004.40
2022-11-08 17:29:00,,0822.6,5.01,0.00,23.8,22.7,00.0,32.5,25.7,16.0,0000.1,0010.93,0005.30,0004.34
2022-11-08 17:30:00,,0822.6,5.00,0.00,23.8,22.7,00.0,32.6,25.7,16.4,0000.9,0010.83,0005.24,0004.29
2022-11-08 17:31:00,,0822.6,4.99,0.00,23.8,22.8,00.0,32.6,25.7,17.2,0001.4,0010.59,0005.15,0004.25
2022-11-08 17:32:00,,0822.6,5.02,0.00,23.8,22.8,00.0,32.6,25.7,17.2,0001.9,0010.56,0005.14,0004.24
2022-11-08 17:33:00,,0822.7,4.99,0.00,23.9,22.8,00.0,32.6,25.8,16.9,0002.6,0011.07,0005.10,0004.23
2022-11-08 17:34:00,,0822.7,5.00,0.00,23.9,22.8,00.0,32.6,25.8,17.2,0002.3,0011.68,0005.12,0004.24
2022-11-08 17:35:00,,0822.7,5.01,0.00,23.9,22.9,00.0,32.6,25.9,17.0,0001.5,0011.61,0005.09,0004.24
2022-11-08 17:36:00,,0822.7,5.00,0.00,23.9,22.9,00.0,32.6,25.9,17.0,0001.3,0012.20,0005.08,0004.23
2022-11-08 17:37:00,,0822.6,5.00,0.00,23.9,22.9,00.0,32.7,25.9,16.7,0000.5,0012.24,0005.06,0004.22
2022-11-08 17:38:00,,0822.6,4.99,0.00,24.0,22.9,00.0,32.7,25.9,16.8,0000.6,0012.27,0005.04,0004.20
2022-11-08 17:39:00,,0822.6,4.99,0.00,24.0,23.0,00.0,32.7,26.0,17.0,0000.5,0012.34,0005.05,0004.18
2022-11-08 17:40:00,,0822.6,5.00,0.00,24.0,23.0,00.0,32.7,26.0,16.7,0000.7,0012.51,0005.07,0004.20
2022-11-08 17:41:00,,0822.7,5.00,0.00,24.0,23.0,00.0,32.7,26.0,17.0,0000.3,0012.56,0005.07,0004.22
2022-11-08 17:42:00,,0822.7,4.99,0.00,24.0,23.0,00.0,32.8,26.0,15.9,-000.3,0012.52,0005.05,0004.21
2022-11-08 17:43:00,,0822.7,5.00,0.00,24.1,23.0,00.0,32.8,26.0,16.1,-000.3,0012.42,0004.98,0004.15
2022-11-08 17:44:00,,0822.7,5.00,0.00,24.1,23.1,00.0,32.8,26.0,17.0,-001.2,0011.94,0004.98,0004.13
2022-11-08 17:45:00,,0822.6,4.99,0.00,24.1,23.1,00.0,32.8,26.1,17.2,-001.4,0011.15,0004.98,0004.13
2022-11-08 17:46:00,,0822.6,5.02,0.00,24.1,23.1,00.0,32.8,26.1,17.0,-000.6,0011.58,0005.02,0004.13
2022-11-08 17:47:00,,0822.6,5.00,0.00,24.1,23.1,00.0,32.8,26.1,16.9,-000.5,0011.04,0005.01,0004.14
2022-11-08 17:48:00,,0822.6,4.99,0.00,24.2,23.1,00.0,32.9,26.1,17.1,-000.7,0011.00,0005.01,0004.15
2022-11-08 17:49:00,,0822.6,4.99,0.00,24.2,23.2,00.0,32.9,26.1,17.4,-000.1,0011.33,0005.03,0004.16
2022-11-08 17:50:00,,0822.6,5.02,0.00,24.2,23.2,00.0,32.9,26.1,17.2,-000.3,0011.55,0005.04,0004.17
2022-11-08 17:51:00,,0822.6,4.99,0.00,24.2,23.2,00.0,32.9,26.2,17.7,-000.4,0012.13,0005.09,0004.19
2022-11-08 17:52:00,,0822.5,4.99,0.00,24.2,23.2,00.0,32.9,26.2,17.8,0000.0,0011.96,0005.12,0004.20
2022-11-08 17:53:00,,0822.5,5.02,0.00,24.3,23.3,00.0,33.0,26.2,17.9,0000.3,0012.07,0005.16,0004.24
2022-11-08 17:54:00,,0822.6,4.99,0.00,24.3,23.3,00.0,33.0,26.3,18.3,0000.1,0012.50,0005.25,0004.32
2022-11-08 17:55:00,,0822.6,5.01,0.00,24.3,23.3,00.0,33.0,26.3,17.9,0000.1,0012.94,0005.34,0004.36
2022-11-08 17:56:00,,0822.7,5.01,0.00,24.3,23.4,00.0,33.0,26.3,17.8,0000.2,0013.22,0005.33,0004.37
2022-11-08 17:57:00,,0822.6,4.99,0.00,24.4,23.4,00.0,33.0,26.4,17.9,-000.1,0013.00,0005.34,0004.38
2022-11-08 17:58:00,,0822.6,5.02,0.00,24.4,23.4,00.0,33.0,26.4,17.8,-000.3,0012.95,0005.36,0004.40
2022-11-08 17:59:00,,0822.4,4.99,0.00,24.4,23.5,00.0,33.0,26.4,17.6,-000.2,0013.28,0005.37,0004.40
